Location: Tamazert
(32.6352°N, 5.2072°W)
Time: 22:02:18
(UTC+00:00)

ARIANE 5 R/B - Pass Details

Date: 22 May 2022
Orbit: 747 x 795 km, 98.7° (Epoch: 24 June)

Event Time Altitude Azimuth Distance (km) Brightness Sun altitude
Rises 04:05:03 0° 10° (N) 3,237 6.5 -14.1°
Reaches altitude 10° 04:07:22 10° 9° (N) 2,300 5.6 -13.7°
Maximum altitude 04:12:25 74° 285° (WNW) 787 2.4 -12.8°
Enters shadow 04:17:22 10° 201° (SSW) 2,263 4.5 -12.0°
